Weather in Bachatsky

Russia / Kemerovo Oblast     54°17′04″N   86°06′12″E
temp.,
°C
wind,
m/s
gust,
m/s
humid.,
%
clouds,
%
prec.,
mm/h
press.,
hPa
HPBL,
m
29 may, sun
sun2901:00+14nw116445 0.0 101110
04:00+12w116835 0.0 101110
07:00+15w015874 0.0 101245
10:00+20nnw224372 0.0 1011503
13:00+23nnw2236100 0.0 10101127
16:00+17wsw4766100 0.2 1011271
19:00+13wnw3795100 3.1 1012439
22:00+12w6139231 1.6 1013699
30 may, mon
mon3001:00+11wsw71589100 1.6 1014778
04:00+11sw615889 0.0 1014444
07:00+13sw6147940 0.0 1014404
10:00+18sw71456100 0.0 1011761
13:00+21wsw81752100 0.1 10102111
16:00+22w814415 0.4 10092486
19:00+19wnw613502 0.4 10091883
22:00+15w512590 0.0 1011489
31 may, tue
tue3101:00+11sw4977100 0.0 1012180
04:00+10sw411808 0.0 1011221
07:00+13sw387426 0.0 1011229
10:00+18wsw575460 0.0 10101286
13:00+20wsw5744100 0.0 10092133
16:00+19w365269 0.0 1008923
19:00+16ne3468100 0.0 1006152
22:00+15se31072100 0.0 1003258
1 june, wed
wed101:00+14ssw6149098 2.3 1001578
04:00+13wsw6129497 0.3 1001674
07:00+13sw5128750 0.4 1002720
10:00+16sw816555 0.0 10011970
13:00+18wsw1016476 0.0 9992243
16:00+16wsw9145328 0.1 10001906
19:00+12wsw71075100 0.4 10021157
22:00+9wsw488636 0.2 1005463
2 june, thu
thu201:00+8sw5119241 0.4 1005361
04:00+8wsw4887100 0.1 10051037
07:00+7wsw4990100 0.6 1006586
10:00+12wsw586040 0.1 10061460
13:00+11ssw5870100 0.9 10051077
16:00+8sw499295 4.1 1006638
19:00+10wsw59760 4.9 10061052
22:00+5ssw38915 0.1 1008247